ZSJRH FAPE-FAGG

Flight info

Callsign ZSJRH
Flight time 0h 51m
Altitude 16000
Route OKRAV DCT GABGO
Aircraft PC12/L-SDFGRWY/S

Departure

Time 2026-05-04 12:37
Airport Chief Dawid Stuurman International Airport (FAPE)

Arrival

Time 2026-05-04 13:28
Airport George Airport (FAGG)
Time Latitude Longitude Altitude Speed Heading
2026-05-04 12:31 -33.98528 25.61045 231 ft 0 kts 329°
2026-05-04 12:34 -33.98522 25.61045 231 ft 4 kts 19°
2026-05-04 12:34 -33.98547 25.61110 231 ft 15 kts 103°
2026-05-04 12:34 -33.98509 25.61227 231 ft 20 kts 56°
2026-05-04 12:34 -33.98444 25.61355 231 ft 17 kts 72°
2026-05-04 12:35 -33.98382 25.61520 231 ft 26 kts 58°
2026-05-04 12:35 -33.98277 25.61723 231 ft 29 kts 57°
2026-05-04 12:35 -33.98252 25.61899 232 ft 15 kts 140°
2026-05-04 12:35 -33.98270 25.61913 232 ft 0 kts 146°
2026-05-04 12:36 -33.98294 25.61932 234 ft 14 kts 147°
2026-05-04 12:36 -33.98396 25.61899 234 ft 27 kts 241°
2026-05-04 12:36 -33.98603 25.61512 232 ft 79 kts 238°
2026-05-04 12:36 -33.98918 25.60881 463 ft 89 kts 239°
2026-05-04 12:37 -33.99272 25.60198 881 ft 104 kts 232°
2026-05-04 12:37 -33.99728 25.59513 1371 ft 118 kts 228°
2026-05-04 12:37 -34.00053 25.58448 1630 ft 149 kts 271°
2026-05-04 12:37 -33.99728 25.57318 2521 ft 137 kts 290°
2026-05-04 12:38 -33.99413 25.56290 3300 ft 127 kts 282°
2026-05-04 12:38 -33.99242 25.55297 3997 ft 118 kts 275°
2026-05-04 12:38 -33.99143 25.54348 4697 ft 111 kts 275°
2026-05-04 12:38 -33.99093 25.53444 5331 ft 105 kts 274°
2026-05-04 12:39 -33.99069 25.52554 5913 ft 107 kts 274°
2026-05-04 12:39 -33.99059 25.51658 6481 ft 106 kts 274°
2026-05-04 12:39 -33.99058 25.50773 7083 ft 104 kts 275°
2026-05-04 12:39 -33.99058 25.49916 7709 ft 101 kts 277°
2026-05-04 12:40 -33.99064 25.49087 8334 ft 97 kts 278°
2026-05-04 12:40 -33.99068 25.48287 8950 ft 93 kts 280°
2026-05-04 12:40 -33.99074 25.47514 9567 ft 90 kts 282°
2026-05-04 12:40 -33.99078 25.46774 10154 ft 87 kts 282°
2026-05-04 12:41 -33.99092 25.46050 10717 ft 85 kts 282°
2026-05-04 12:41 -33.99094 25.45355 11267 ft 83 kts 283°
2026-05-04 12:41 -33.99098 25.44658 11821 ft 81 kts 284°
2026-05-04 12:41 -33.99099 25.43995 12386 ft 80 kts 284°
2026-05-04 12:42 -33.99098 25.43322 12941 ft 80 kts 284°
2026-05-04 12:42 -33.99099 25.42663 13517 ft 80 kts 284°
2026-05-04 12:42 -33.99103 25.41999 14018 ft 79 kts 284°
2026-05-04 12:42 -33.99101 25.41329 14457 ft 81 kts 284°
2026-05-04 12:43 -33.99103 25.40643 14888 ft 83 kts 284°
2026-05-04 12:43 -33.99104 25.40179 15175 ft 84 kts 284°
2026-05-04 12:43 -33.99105 25.39225 15761 ft 86 kts 284°
2026-05-04 12:43 -33.99099 25.38702 15863 ft 105 kts 284°
2026-05-04 12:44 -33.99065 25.37309 15927 ft 145 kts 281°
2026-05-04 12:44 -33.99061 25.35989 15951 ft 169 kts 279°
2026-05-04 12:44 -33.99069 25.34480 15949 ft 188 kts 278°
2026-05-04 12:44 -33.99080 25.33407 15942 ft 198 kts 278°
2026-05-04 12:45 -33.99102 25.31114 15934 ft 210 kts 278°
2026-05-04 12:45 -33.99119 25.29327 15905 ft 216 kts 278°
2026-05-04 12:45 -33.99132 25.27501 15891 ft 219 kts 278°
2026-05-04 12:45 -33.99138 25.26283 15889 ft 220 kts 278°
2026-05-04 12:46 -33.99150 25.23809 15875 ft 221 kts 278°
2026-05-04 12:46 -33.99155 25.22578 15871 ft 222 kts 278°
2026-05-04 12:46 -33.99163 25.20111 15867 ft 222 kts 278°
2026-05-04 12:46 -33.99167 25.18852 15866 ft 222 kts 278°
2026-05-04 12:47 -33.99174 25.16387 15867 ft 222 kts 278°
2026-05-04 12:47 -33.99176 25.15127 15865 ft 222 kts 278°
2026-05-04 12:47 -33.99182 25.12655 15868 ft 222 kts 278°
2026-05-04 12:47 -33.99184 25.11419 15870 ft 223 kts 278°
2026-05-04 12:48 -33.99189 25.08927 15883 ft 223 kts 277°
2026-05-04 12:48 -33.99193 25.07716 15887 ft 223 kts 278°
2026-05-04 12:48 -33.99188 25.05209 15880 ft 223 kts 278°
2026-05-04 12:48 -33.99187 25.03972 15877 ft 223 kts 278°
2026-05-04 12:49 -33.99190 25.01466 15885 ft 223 kts 278°
2026-05-04 12:49 -33.99192 25.00226 15885 ft 223 kts 278°
2026-05-04 12:49 -33.99194 24.97745 15875 ft 223 kts 278°
2026-05-04 12:49 -33.99195 24.95877 15875 ft 223 kts 278°
2026-05-04 12:50 -33.99196 24.94006 15875 ft 223 kts 278°
2026-05-04 12:50 -33.99197 24.92750 15871 ft 222 kts 278°
2026-05-04 12:50 -33.99199 24.90285 15871 ft 222 kts 278°
2026-05-04 12:50 -33.99198 24.88419 15873 ft 222 kts 278°
2026-05-04 12:51 -33.99199 24.86553 15875 ft 222 kts 278°
2026-05-04 12:51 -33.99198 24.84711 15874 ft 222 kts 278°
2026-05-04 12:51 -33.99198 24.82845 15876 ft 222 kts 278°
2026-05-04 12:51 -33.99197 24.80977 15879 ft 222 kts 278°
2026-05-04 12:52 -33.99195 24.79112 15878 ft 223 kts 278°
2026-05-04 12:52 -33.99193 24.77246 15877 ft 223 kts 278°
2026-05-04 12:52 -33.99191 24.75376 15880 ft 223 kts 278°
2026-05-04 12:52 -33.99190 24.74140 15866 ft 222 kts 278°
2026-05-04 12:53 -33.99187 24.71675 15845 ft 221 kts 278°
2026-05-04 12:53 -33.99187 24.70425 15840 ft 220 kts 278°
2026-05-04 12:53 -33.99183 24.68582 15823 ft 220 kts 278°
2026-05-04 12:53 -33.99180 24.66742 15845 ft 219 kts 278°
2026-05-04 12:54 -33.99173 24.64304 15854 ft 219 kts 278°
2026-05-04 12:54 -33.99171 24.63088 15874 ft 220 kts 278°
2026-05-04 12:54 -33.99107 24.60639 15901 ft 217 kts 283°
2026-05-04 12:54 -33.98938 24.59457 15905 ft 215 kts 288°
2026-05-04 12:55 -33.98367 24.57156 15906 ft 215 kts 291°
2026-05-04 12:55 -33.97950 24.55425 15911 ft 216 kts 290°
2026-05-04 12:55 -33.97678 24.54271 15907 ft 216 kts 290°
2026-05-04 12:55 -33.97127 24.51939 15897 ft 217 kts 290°
2026-05-04 12:56 -33.96852 24.50783 15900 ft 217 kts 290°
2026-05-04 12:56 -33.96307 24.48498 15902 ft 216 kts 291°
2026-05-04 12:56 -33.96030 24.47344 15904 ft 216 kts 291°
2026-05-04 12:56 -33.95611 24.45605 15903 ft 216 kts 291°
2026-05-04 12:57 -33.95049 24.43277 15906 ft 216 kts 291°
2026-05-04 12:57 -33.94770 24.42124 15910 ft 216 kts 291°
2026-05-04 12:57 -33.94211 24.39814 15884 ft 216 kts 291°
2026-05-04 12:57 -33.93928 24.38644 15889 ft 216 kts 291°
2026-05-04 12:58 -33.93369 24.36345 15885 ft 215 kts 290°
2026-05-04 12:58 -33.93084 24.35174 15898 ft 216 kts 290°
2026-05-04 12:58 -33.92525 24.32874 15927 ft 216 kts 290°
2026-05-04 12:58 -33.92240 24.31696 15927 ft 217 kts 291°
2026-05-04 12:59 -33.91678 24.29385 15929 ft 218 kts 291°
2026-05-04 12:59 -33.91395 24.28226 15928 ft 218 kts 291°
2026-05-04 12:59 -33.90823 24.25881 15939 ft 218 kts 291°
2026-05-04 12:59 -33.90541 24.24722 15943 ft 218 kts 291°
2026-05-04 13:00 -33.89968 24.22369 15947 ft 219 kts 291°
2026-05-04 13:00 -33.89684 24.21204 15944 ft 219 kts 291°
2026-05-04 13:00 -33.89110 24.18858 15941 ft 218 kts 291°
2026-05-04 13:00 -33.88826 24.17698 15944 ft 218 kts 291°
2026-05-04 13:01 -33.88258 24.15376 15937 ft 218 kts 291°
2026-05-04 13:01 -33.87828 24.13621 15918 ft 219 kts 291°
2026-05-04 13:01 -33.87397 24.11863 15902 ft 218 kts 291°
2026-05-04 13:01 -33.87108 24.10682 15896 ft 218 kts 291°
2026-05-04 13:02 -33.86541 24.08367 15862 ft 217 kts 291°
2026-05-04 13:02 -33.86258 24.07217 15846 ft 216 kts 291°
2026-05-04 13:02 -33.85692 24.04905 15888 ft 215 kts 291°
2026-05-04 13:02 -33.85265 24.03175 15903 ft 216 kts 291°
2026-05-04 13:03 -33.84838 24.01440 15910 ft 217 kts 291°
2026-05-04 13:03 -33.84554 24.00287 15914 ft 217 kts 291°
2026-05-04 13:03 -33.83980 23.97957 15919 ft 218 kts 291°
2026-05-04 13:03 -33.83695 23.96800 15916 ft 218 kts 291°
2026-05-04 13:04 -33.83119 23.94463 15910 ft 218 kts 291°
2026-05-04 13:04 -33.82692 23.92731 15915 ft 218 kts 291°
2026-05-04 13:04 -33.82262 23.90986 15923 ft 218 kts 291°
2026-05-04 13:04 -33.81828 23.89236 15926 ft 218 kts 291°
2026-05-04 13:05 -33.81394 23.87481 15930 ft 218 kts 291°
2026-05-04 13:05 -33.81107 23.86320 15933 ft 219 kts 291°
2026-05-04 13:05 -33.80526 23.83977 15929 ft 219 kts 291°
2026-05-04 13:05 -33.80093 23.82223 15915 ft 218 kts 291°
2026-05-04 13:06 -33.79661 23.80477 15898 ft 217 kts 291°
2026-05-04 13:06 -33.79375 23.79324 15890 ft 217 kts 291°
2026-05-04 13:06 -33.78801 23.77009 15874 ft 215 kts 291°
2026-05-04 13:06 -33.78518 23.75868 15888 ft 215 kts 292°
2026-05-04 13:07 -33.77950 23.73584 15928 ft 216 kts 292°
2026-05-04 13:07 -33.77659 23.72415 15927 ft 216 kts 291°
2026-05-04 13:07 -33.77227 23.70682 15925 ft 217 kts 291°
2026-05-04 13:07 -33.76792 23.68944 15914 ft 217 kts 291°
2026-05-04 13:08 -33.76217 23.66636 15940 ft 218 kts 291°
2026-05-04 13:08 -33.75926 23.65474 15948 ft 219 kts 292°
2026-05-04 13:08 -33.75341 23.63132 15916 ft 219 kts 291°
2026-05-04 13:08 -33.75051 23.61970 15901 ft 219 kts 291°
2026-05-04 13:09 -33.74469 23.59634 15930 ft 218 kts 292°
2026-05-04 13:09 -33.74033 23.57888 15939 ft 218 kts 291°
2026-05-04 13:09 -33.73596 23.56140 15944 ft 219 kts 292°
2026-05-04 13:09 -33.73157 23.54390 15953 ft 219 kts 291°
2026-05-04 13:10 -33.72717 23.52631 15957 ft 220 kts 291°
2026-05-04 13:10 -33.72423 23.51465 15958 ft 220 kts 291°
2026-05-04 13:10 -33.71832 23.49106 15954 ft 221 kts 291°
2026-05-04 13:10 -33.71538 23.47931 15962 ft 221 kts 292°
2026-05-04 13:11 -33.70949 23.45593 15955 ft 221 kts 291°
2026-05-04 13:11 -33.70654 23.44424 15940 ft 220 kts 291°
2026-05-04 13:11 -33.70063 23.42067 15960 ft 220 kts 292°
2026-05-04 13:11 -33.69769 23.40898 15940 ft 221 kts 292°
2026-05-04 13:12 -33.69177 23.38536 15943 ft 220 kts 292°
2026-05-04 13:12 -33.68882 23.37368 15943 ft 221 kts 292°
2026-05-04 13:12 -33.68285 23.35007 15942 ft 221 kts 292°
2026-05-04 13:12 -33.67989 23.33836 15942 ft 221 kts 292°
2026-05-04 13:13 -33.67392 23.31476 15935 ft 221 kts 292°
2026-05-04 13:13 -33.67101 23.30306 15924 ft 220 kts 291°
2026-05-04 13:13 -33.67155 23.27786 15660 ft 246 kts 262°
2026-05-04 13:13 -33.67625 23.26529 15478 ft 252 kts 256°
2026-05-04 13:14 -33.68618 23.23984 15150 ft 255 kts 257°
2026-05-04 13:14 -33.69112 23.22675 14985 ft 256 kts 257°
2026-05-04 13:14 -33.70080 23.20100 14673 ft 255 kts 257°
2026-05-04 13:14 -33.70565 23.18811 14532 ft 254 kts 257°
2026-05-04 13:15 -33.71539 23.16212 14240 ft 254 kts 257°
2026-05-04 13:15 -33.72020 23.14927 14093 ft 254 kts 257°
2026-05-04 13:15 -33.72990 23.12334 13762 ft 254 kts 257°
2026-05-04 13:15 -33.73469 23.11048 13586 ft 254 kts 257°
2026-05-04 13:16 -33.74430 23.08472 13303 ft 255 kts 256°
2026-05-04 13:16 -33.75158 23.06522 13076 ft 255 kts 256°
2026-05-04 13:16 -33.75870 23.04644 12702 ft 240 kts 256°
2026-05-04 13:16 -33.76397 23.03456 12425 ft 240 kts 245°
2026-05-04 13:17 -33.77872 23.01743 12216 ft 207 kts 235°
2026-05-04 13:17 -33.78596 23.00955 12163 ft 212 kts 236°
2026-05-04 13:17 -33.79701 22.99716 11864 ft 226 kts 235°
2026-05-04 13:17 -33.80891 22.98397 11564 ft 232 kts 234°
2026-05-04 13:18 -33.82069 22.97095 11213 ft 237 kts 233°
2026-05-04 13:18 -33.83298 22.95736 10841 ft 241 kts 232°
2026-05-04 13:18 -33.84543 22.94362 10531 ft 247 kts 232°
2026-05-04 13:18 -33.85823 22.92943 10235 ft 254 kts 231°
2026-05-04 13:19 -33.87135 22.91491 9854 ft 259 kts 231°
2026-05-04 13:19 -33.88450 22.90044 9550 ft 254 kts 230°
2026-05-04 13:19 -33.89745 22.88621 9261 ft 248 kts 230°
2026-05-04 13:19 -33.91007 22.87231 8987 ft 244 kts 230°
2026-05-04 13:20 -33.92256 22.85859 8721 ft 242 kts 229°
2026-05-04 13:20 -33.93500 22.84492 8456 ft 242 kts 229°
2026-05-04 13:20 -33.94739 22.83128 8192 ft 241 kts 229°
2026-05-04 13:20 -33.95976 22.81764 7950 ft 241 kts 228°
2026-05-04 13:21 -33.97211 22.80401 7694 ft 241 kts 229°
2026-05-04 13:21 -33.98311 22.78932 7416 ft 232 kts 242°
2026-05-04 13:21 -33.98946 22.77182 7133 ft 226 kts 258°
2026-05-04 13:21 -33.99245 22.75324 6819 ft 225 kts 267°
2026-05-04 13:22 -33.99371 22.73443 6508 ft 225 kts 270°
2026-05-04 13:22 -33.99437 22.71557 6180 ft 226 kts 270°
2026-05-04 13:22 -33.99502 22.69662 5848 ft 227 kts 270°
2026-05-04 13:22 -33.99569 22.67758 5516 ft 227 kts 270°
2026-05-04 13:23 -33.99632 22.65861 5188 ft 226 kts 269°
2026-05-04 13:23 -33.99696 22.63991 4877 ft 226 kts 269°
2026-05-04 13:23 -33.99760 22.62107 4561 ft 224 kts 268°
2026-05-04 13:23 -33.99825 22.60215 4232 ft 226 kts 267°
2026-05-04 13:24 -33.99889 22.58350 3917 ft 219 kts 267°
2026-05-04 13:24 -33.99948 22.56540 3605 ft 215 kts 267°
2026-05-04 13:24 -34.00003 22.54755 3319 ft 212 kts 266°
2026-05-04 13:25 -34.00122 22.51233 2737 ft 208 kts 266°
2026-05-04 13:25 -34.00177 22.49488 2428 ft 206 kts 265°
2026-05-04 13:25 -34.00229 22.47910 2141 ft 169 kts 265°
2026-05-04 13:25 -34.00264 22.46743 1942 ft 121 kts 264°
2026-05-04 13:26 -34.00297 22.45802 1797 ft 102 kts 264°
2026-05-04 13:26 -34.00324 22.45002 1692 ft 91 kts 263°
2026-05-04 13:26 -34.00352 22.44252 1566 ft 90 kts 262°
2026-05-04 13:26 -34.00377 22.43498 1446 ft 90 kts 263°
2026-05-04 13:27 -34.00402 22.42728 1327 ft 92 kts 264°
2026-05-04 13:27 -34.00424 22.41948 1226 ft 96 kts 267°
2026-05-04 13:27 -34.00445 22.41144 1096 ft 96 kts 263°
2026-05-04 13:27 -34.00470 22.40336 949 ft 96 kts 264°
2026-05-04 13:28 -34.00501 22.39523 817 ft 98 kts 266°
2026-05-04 13:28 -34.00526 22.38732 669 ft 86 kts 268°
2026-05-04 13:28 -34.00545 22.38161 650 ft 49 kts 268°
2026-05-04 13:28 -34.00538 22.37915 653 ft 29 kts 304°
2026-05-04 13:29 -34.00359 22.37876 652 ft 16 kts 322°
2026-05-04 13:29 -34.00345 22.37713 652 ft 11 kts 288°
2026-05-04 13:29 -34.00240 22.37679 654 ft 22 kts 355°
2026-05-04 13:29 -34.00101 22.37671 652 ft 13 kts 323°
2026-05-04 13:30 -34.00091 22.37628 652 ft 0 kts 270°